This is the latest recevied weather packets stored in our database for station/object HB9FSE-WX. If no packets are shown the sender has not sent any weather packets the latest 1 day(s).
| Time | Temp. | Humidity | Pressure | Rain* | Wind** | Luminosity | Snow |
|---|---|---|---|---|---|---|---|
| 1778100092 | 23.33° C | 38% | 1011.8 hPa | - | - | - | - |
| 1778099192 | 23.33° C | 38% | 1011.8 hPa | - | - | - | - |
| 1778098291 | 23.89° C | 38% | 1011.9 hPa | - | - | - | - |
| 1778097391 | 23.89° C | 38% | 1011.8 hPa | - | - | - | - |
| 1778082992 | 23.89° C | 38% | 1009.9 hPa | - | - | - | - |
| 1778082092 | 23.33° C | 37% | 1010.1 hPa | - | - | - | - |
| 1778081192 | 22.78° C | 38% | 1009.9 hPa | - | - | - | - |
| 1778080292 | 22.78° C | 38% | 1010.1 hPa | - | - | - | - |
| 1778079392 | 23.33° C | 39% | 1010.2 hPa | - | - | - | - |
| 1778067692 | 23.89° C | 38% | 1007.4 hPa | - | - | - | - |
| 1778066792 | 23.33° C | 38% | 1007.4 hPa | - | - | - | - |
| 1778065892 | 23.33° C | 37% | 1007.3 hPa | - | - | - | - |
| 1778064992 | 24.44° C | 38% | 1007.5 hPa | - | - | - | - |
| 1778064092 | 23.89° C | 39% | 1007.5 hPa | - | - | - | - |
| 1778062291 | 23.33° C | 41% | 1007.6 hPa | - | - | - | - |
| 1778061391 | 23.33° C | 40% | 1007.6 hPa | - | - | - | - |
| 1778060491 | 23.33° C | 40% | 1007.8 hPa | - | - | - | - |
| 1778058691 | 23.33° C | 39% | 1007.4 hPa | - | - | - | - |
| 1778057791 | 23.33° C | 40% | 1007.5 hPa | - | - | - | - |
| 1778056891 | 23.33° C | 39% | 1007.6 hPa | - | - | - | - |
| 1778055991 | 23.33° C | 39% | 1007.7 hPa | - | - | - | - |
| 1778051489 | 22.78° C | 39% | 1007.7 hPa | - | - | - | - |
| 1778049689 | 22.78° C | 39% | 1007.7 hPa | - | - | - | - |
| 1778047005 | 22.78° C | 39% | 1007.7 hPa | - | - | - | - |
| 1778046105 | 22.78° C | 39% | 1007.9 hPa | - | - | - | - |
* Rain since midnight (hover to see other rain measurements)
** Current wind speed in m/s (hover to see current wind gust speed)